Location: Unspecified
(42.3650°N, 71.1030°W)
Time: 03:33:11
(UTC+00:00)

Daily predictions for brighter satellites

Satellite Brightness Start Highest point End
(mag) Time Altitude Azimuth Time Altitude Azimuth Time Altitude Azimuth
BREEZE M DEB (TANK) 3.6 00:14:50 10° WSW 00:17:53 75° NNW 00:26:21 10° ENE
Cosmos 1842 Rocket 3.6 00:14:51 10° S 00:19:17 72° E 00:23:47 10° NNE
Cosmos 921 Rocket 3.0 00:15:15 10° NNW 00:19:33 88° WSW 00:23:45 10° SSE
X-37B 1.3 00:16:40 10° W 00:19:49 53° N 00:22:58 10° ENE
Helios 1A Rocket 3.3 00:19:07 10° S 00:23:13 71° WSW 00:27:23 10° NNW
SL-4 R/B 2.5 00:23:06 10° NW 00:27:25 61° NNE 00:32:00 10° ESE
Cosmos 1570 Rocket 4.1 00:22:12 10° NNW 00:27:28 83° WSW 00:32:40 10° SSE
Ariane Rocket 3.3 00:24:21 10° SE 00:29:12 49° ENE 00:34:03 10° N
CZ-2C R/B 4.3 00:24:48 10° N 00:29:46 40° WNW 00:34:50 10° SW
Meteor 2-15 Rocket 4.4 00:23:55 10° S 00:29:57 76° E 00:36:03 10° NNE
Cosmos 1805 Rocket 4.4 00:31:09 10° NNE 00:35:04 32° ENE 00:38:57 10° SE
Cosmos 2263 Rocket 4.1 00:30:53 10° WSW 00:35:56 35° WNW 00:41:02 10° N
SL-08 ROCKET BODY 4.5 00:31:25 10° N 00:37:15 58° E 00:42:59 10° SSE
Meteor 2-2 Rocket 4.5 00:33:02 10° SSW 00:38:42 75° W 00:44:21 10° N
Cosmos 1943 4.1 00:33:31 10° NW 00:38:56 49° WSW 00:44:20 10° S
ERS-2 3.0 00:35:57 10° N 00:39:30 53° WNW 00:43:01 10° SSW
Cosmos 1814 Rocket 4.4 00:34:28 10° NNW 00:39:39 66° WSW 00:44:45 10° S
Cosmos 1844 Rocket 2.7 00:35:08 10° S 00:40:33 57° ESE 00:46:01 10° NNE
CZ-4 R/B 4.4 00:40:42 10° WSW 00:42:39 13° W 00:44:35 10° WNW
BREEZE-M R/B 1.7 00:41:08 10° SW 00:44:09 77° SSE 00:46:33 10° ENE
MOS 1-B Rocket 4.3 00:37:34 10° NNE 00:45:12 80° ESE 00:51:37 10° S
USA 186 3.1 00:45:22 10° SSW 00:47:44 29° W 00:49:58 10° NW
Resurs 1-3 3.7 00:43:31 10° SSE 00:47:50 64° ENE 00:52:11 10° N
Cosmos 1743 Rocket 3.5 00:44:57 10° N 00:49:18 85° E 00:53:40 10° S
FALCON 9 DEB 2.9 00:51:06 10° WNW 00:54:07 66° SW 00:56:10 18° SE
SPOT 3 Rocket 4.0 00:50:57 12° SE 00:55:21 44° ENE 01:00:14 10° N
Cosmos 968 Rocket 3.5 00:51:16 10° SSW 00:56:31 88° ESE 01:01:47 10° NNE
IGS 5A 4.1 00:53:50 15° SE 00:56:54 38° ENE 01:00:46 10° N
BREEZE M DEB (TANK) 4.3 00:51:47 10° WNW 00:58:22 32° NNW 01:01:02 10° NE
IRS-1A Rocket 4.4 00:52:44 10° SSE 00:58:29 87° WSW 01:04:23 10° NNW
Cosmos 2221 4.1 00:56:11 10° SSW 01:00:12 38° WNW 01:04:16 10° N
FALCON 9 DEB 3.3 00:57:19 10° WNW 01:00:16 52° SW 01:02:08 20° SSE
Cosmos 1500 Rocket 3.8 00:56:49 10° NNW 01:01:12 70° W 01:05:31 10° S
Cosmos 1844 3.7 00:55:45 10° SSW 01:01:26 69° ESE 01:07:06 10° NNE
Cosmos 1486 Rocket 4.0 00:59:42 10° SSW 01:05:01 85° ESE 01:10:23 10° NNE
ATLAS 5 CENTAUR R/B 3.1 01:00:13 10° NNW 01:05:31 42° NE 01:10:17 16° ESE
OBJECT-B 2.5 01:02:50 10° SSW 01:05:46 32° W 01:08:44 10° NNW
Cosmos 1745 Rocket 4.0 01:00:49 10° N 01:07:01 69° E 01:12:45 12° SSE
Cosmos 1242 Rocket 3.0 01:05:46 17° SSE 01:08:12 40° E 01:11:34 10° NNE
Cosmos 1933 3.5 01:04:27 11° S 01:08:15 51° E 01:12:11 10° NNE
BREEZE-M DEB (TANK) 3.1 01:06:25 10° W 01:08:28 30° SSW 01:10:07 18° SSE
Cosmos 1666 Rocket 4.4 01:05:12 10° N 01:09:12 33° ENE 01:11:27 21° SE
FALCON 9 DEB 3.1 01:06:27 10° WNW 01:09:27 57° SW 01:10:57 25° SSE
Cosmos 1709 Rocket 4.5 01:03:59 10° N 01:09:45 41° ENE 01:13:48 18° SE
USA 245 4.2 01:15:37 15° ENE 01:15:37 15° ENE 01:16:41 10° NNE
Cosmos 1833 Rocket 4.4 01:11:33 10° N 01:15:42 20° NE 01:19:05 13° E
Cosmos 1437 Rocket 3.2 01:12:34 10° SSW 01:16:23 63° WNW 01:20:17 10° N
IRIS 3.7 01:18:22 10° W 01:20:46 69° S 01:21:45 35° ESE
NOSS 3-3 (A) 4.1 01:17:56 10° S 01:23:15 45° ESE 01:29:12 10° NE
NOSS 3-3 (C) 4.1 01:18:02 10° S 01:23:22 45° ESE 01:29:18 10° NE
Cosmos 2315 Rocket 4.3 01:19:01 14° SSE 01:24:14 51° E 01:30:23 10° NNE
S3M 4.1 01:18:05 10° S 01:24:28 86° W 01:30:52 10° N
Resurs 01 Rocket 1.6 01:22:23 18° SSE 01:25:41 87° W 01:30:09 10° NNW
SJ 16-02 3.4 01:29:06 12° E 01:29:06 12° E 01:30:07 10° ENE
Sich 1 3.0 01:26:42 10° N 01:31:02 82° W 01:33:57 21° S
Cosmos 1500 4.4 01:28:05 10° NNE 01:31:15 25° ENE 01:31:46 24° E
Cosmos 1782 3.0 01:29:53 29° SSE 01:31:38 51° E 01:35:31 10° NNE
Meteor 2-17 Rocket 4.5 01:27:07 10° N 01:33:15 68° E 01:37:14 23° SSE
Spot 2 Rocket 3.9 01:34:45 28° SE 01:37:06 48° ENE 01:41:56 10° N
USA 290 2.2 01:37:20 10° NNW 01:40:34 81° WSW 01:41:20 49° S
DELTA 2 R/B (1) 3.8 01:36:19 10° W 01:41:44 54° SSW 01:44:07 31° SE
FALCON 9 DEB 4.5 01:41:15 10° WNW 01:43:45 23° SW 01:44:06 23° SW
COSMOS 2406 4.2 01:42:26 10° N 01:47:33 33° NE 01:49:55 24° E
Cosmos 2082 Rocket 4.0 01:45:22 10° N 01:49:23 20° NE 01:52:00 15° E
Meteor 1-20 Rocket 4.5 01:44:12 10° NNW 01:49:46 66° W 01:53:36 20° S
Cosmos 1602 3.6 01:46:47 10° N 01:50:39 87° W 01:51:52 43° S
Cosmos 1151 Rocket 2.9 01:48:24 26° S 01:50:48 88° E 01:55:12 10° N
SPOT 5 3.6 01:50:31 32° ESE 01:52:11 42° ENE 01:57:05 10° N
ERS-1 Rocket 3.5 01:50:50 33° ESE 01:52:27 43° ENE 01:57:12 10° N
Cosmos 1503 Rocket 4.5 01:50:50 10° SSW 01:55:56 60° WNW 02:01:06 10° NNE
X-37B 0.8 01:53:30 10° WNW 01:56:41 64° NNE 01:56:59 59° NE
Cosmos 1437 3.3 02:00:13 43° NNE 02:00:13 43° NNE 02:02:16 10° NNE
Terra 2.7 01:59:01 31° E 02:00:01 34° ENE 02:04:18 10° N
Cosmos 1777 Rocket 4.0 01:59:06 34° S 02:01:11 60° ESE 02:06:18 10° NNE
CZ-4C R/B 3.4 01:55:16 10° NNW 02:02:22 54° NE 02:06:50 27° ESE
SWARM A 4.5 01:59:51 10° N 02:02:47 55° NE 02:02:47 55° NE
SL-4 R/B 3.5 02:03:00 10° WNW 02:06:55 29° SW 02:07:49 27° SSW
CZ-2C R/B 4.5 02:04:02 10° N 02:08:22 50° WNW 02:12:21 12° SW
Cosmos 2084 3.2 02:06:36 22° SW 02:09:14 88° ESE 02:13:29 10° NE
Cosmos 1515 Rocket 3.5 02:08:52 56° SE 02:09:25 61° E 02:13:47 10° NNE
Cosmos 2278 Rocket 2.2 02:10:59 41° SSE 02:12:35 55° ESE 02:18:07 10° NNE
ARIANE 5 R/B 2.5 02:13:17 53° S 02:14:15 80° WSW 02:18:36 10° NNW
JB-3 4.2 02:11:05 10° N 02:15:00 84° WNW 02:15:32 64° SSW
Cosmos 1812 2.5 02:16:35 78° E 02:16:35 78° E 02:20:26 10° N
SPOT 1/Viking Rocket 4.2 02:18:39 29° SSW 02:21:01 51° W 02:26:06 10° NNW
Cosmos 1633 Rocket 3.8 02:17:00 10° NNW 02:21:13 47° W 02:22:40 34° SW
Cosmos 1470 Rocket 3.7 02:26:17 10° NNW 02:30:44 68° W 02:31:25 58° SW
Meteor 1-10 Rocket 4.1 02:30:20 55° SSE 02:31:24 68° E 02:37:00 10° NNE
Cosmos 1943 Rocket 4.3 02:34:53 12° ENE 02:34:53 12° ENE 02:35:33 10° ENE
CARTOSAT-1 4.1 02:35:26 45° SW 02:36:05 49° W 02:40:18 10° NNW
Cosmos 1666 3.1 02:33:40 10° N 02:36:44 58° N 02:36:44 58° N
Cosmos 1933 Rocket 3.6 02:40:56 10° NNW 02:45:15 72° W 02:45:15 72° W
Cosmos 2154 Rocket 4.1 02:40:02 10° N 02:46:18 60° E 02:47:26 52° ESE
Meteor 1-5 Rocket 4.2 02:41:47 10° NNW 02:47:09 67° W 02:48:10 54° SSW
ATLAS 5 CENTAUR R/B 3.2 02:44:46 10° NW 02:50:16 41° WSW 02:51:48 36° SSW
USA 305 4.0 02:48:29 10° NW 02:52:29 37° NNE 02:52:51 37° NE
Cosmos 2184 Rocket 3.9 02:48:02 10° N 02:54:17 83° W 02:55:40 57° S
Cosmos 1833 Rocket 2.7 02:54:33 10° NNW 03:00:11 69° WSW 03:00:47 64° SSW
Cosmos 2074 Rocket 4.1 02:55:42 10° NNW 03:01:59 70° W 03:03:29 52° SSW
Iridium 4 Rocket 4.2 03:01:02 41° SW 03:02:42 55° W 03:08:29 10° N
Cosmos 1538 Rocket 4.1 02:59:21 10° NNW 03:04:40 66° WSW 03:04:59 64° SW
SJ 16-02 1.8 03:06:01 57° WNW 03:06:03 57° WNW 03:10:26 10° N
Nadezhda 1 Rocket 3.9 03:05:38 62° S 03:06:51 89° E 03:13:09 10° N
NOSS 3-4 (A) 4.0 03:00:03 10° NNW 03:07:06 70° NE 03:09:18 48° ESE
NOSS 3-4 (C) 4.0 03:00:10 10° NNW 03:07:12 69° NE 03:09:25 48° ESE
Cosmos 2228 Rocket 3.4 03:09:56 63° NW 03:09:56 63° NW 03:13:53 10° N
Meteor 2-12 Rocket 4.3 03:04:17 10° N 03:10:23 82° W 03:11:12 68° SSW
USA 306 3.8 03:07:33 10° NW 03:11:16 46° NNE 03:11:16 46° NNE
Cosmos 158 Rocket 3.9 03:10:22 10° NNW 03:14:51 75° NW 03:14:51 75° NW
Cosmos 1271 Rocket 4.2 03:20:44 34° WNW 03:20:44 34° WNW 03:24:04 10° N
ATLAS 2AS CENTAUR R/B 3.3 03:13:29 10° NNW 03:20:41 52° NE 03:22:46 40° E
USA 215 4.5 03:16:56 12° E 03:22:20 36° NNE 03:28:10 10° NW
Cosmos 1680 Rocket 3.8 03:17:16 10° NNW 03:22:22 60° ENE 03:22:22 60° ENE
Cosmos 1610 Rocket 4.4 03:17:59 10° NNW 03:24:06 74° W 03:24:47 66° SW
Meteor 1-27 Rocket 3.9 03:25:47 61° WSW 03:26:32 68° WNW 03:32:25 10° N
COSMOS 2406 4.1 03:26:41 10° NW 03:31:51 37° WSW 03:31:59 37° WSW
Cosmos 2082 Rocket 2.2 03:28:27 10° NNW 03:33:51 71° W 03:33:51 71° W
USA 307 4.1 03:32:55 10° NW 03:35:48 40° NNW 03:35:48 40° NNW
Cosmos 2341 Rocket 3.9 03:31:02 10° N 03:37:28 76° E 03:37:50 73° ESE
Terra 3.4 03:37:53 26° W 03:37:53 26° W 03:41:46 10° NW
Cosmos 1340 Rocket 4.2 03:33:49 10° N 03:36:25 38° NNW 03:36:25 38° NNW
Cosmos 2366 rocket 4.4 03:31:59 10° N 03:37:57 48° ENE 03:38:09 48° E
Spot 4 4.3 03:50:47 60° N 03:50:47 60° N 03:54:47 10° NNW
USA 308 4.5 03:46:23 10° NW 03:48:47 32° NW 03:48:47 32° NW
CZ-4C R/B 3.6 03:43:59 10° NW 03:51:01 42° WSW 03:52:00 40° SW
Cosmos 2218 Rocket 4.0 03:50:04 10° N 03:56:21 70° E 03:56:27 69° E
Cosmos 2278 Rocket 4.2 03:52:43 11° WSW 03:57:01 24° NW 04:01:35 10° N
Cosmos 1898 Rocket 3.8 03:58:21 64° NW 03:58:21 64° NW 04:03:16 10° NNE
ALOS 2 3.7 04:08:14 41° N 04:08:14 41° N 04:11:11 10° N
Cosmos 2369 Rocket 3.1 04:08:44 38° ENE 04:08:44 38° ENE 04:12:38 10° NE
Cosmos 1943 Rocket 2.3 04:16:21 71° N 04:16:21 71° N 04:21:25 10° NNE
Meteor 2-9 Rocket 4.3 04:10:51 10° N 04:16:09 74° NNW 04:16:09 74° NNW
Cosmos 44 3.9 04:11:30 10° NNW 04:15:59 61° NNW 04:15:59 61° NNW
SL-8 Rocket 4.2 04:19:15 10° NNW 04:25:27 60° W 04:25:27 60° W
Meteor 2-4 Rocket 3.9 04:26:42 68° NE 04:26:42 68° NE 04:31:45 10° NNE
DNEPR-1 R/B 4.4 04:32:46 62° NW 04:32:46 62° NW 04:37:33 10° NNE
Cosmos 1238 Rocket 4.4 04:27:28 10° NNW 04:33:04 46° WNW 04:33:04 46° WNW
SL-08 R/B 4.4 04:28:03 10° N 04:34:10 77° ENE 04:34:10 77° ENE
SeaSat 1 3.2 04:34:08 10° NNE 04:37:38 46° NE 04:37:38 46° NE
Cosmos 1656 Rocket 4.4 04:43:07 44° ENE 04:43:07 44° ENE 04:47:11 10° NNE
BREEZE-M DEB (TANK) 3.9 04:37:41 10° WNW 04:49:25 76° NNE 04:49:28 76° NNE
CZ-2D R/B 4.4 04:55:09 10° ENE 04:57:43 13° E 04:57:53 13° E
Cosmos 2239 Rocket 4.5 04:52:16 10° N 04:58:36 74° E 04:58:40 74° E
USA 215 3.1 05:04:14 75° SE 05:04:54 90° SW 05:11:29 10° NW
Thor Agena Rocket 4.1 05:05:34 10° N 05:10:09 51° NW 05:10:09 51° NW
ATLAS 2AS CENTAUR R/B 3.6 05:04:57 10° NW 05:10:11 33° W 05:10:11 33° W
Cosmos 2298 Rocket 4.3 05:16:32 63° NNW 05:16:32 63° NNW 05:21:07 10° NNE
Cosmos 1048 Rocket 4.4 05:12:22 10° NNW 05:16:40 59° NNW 05:16:40 59° NNW
Cosmos 1461 4.4 05:18:44 37° NNW 05:18:44 37° NNW 05:22:32 10° NNE
Meteor 1-15 Rocket 4.5 05:13:18 10° N 05:18:56 62° ENE 05:18:56 62° ENE
Resurs 1-4 Rocket 3.8 05:17:21 10° NE 05:21:23 22° E 05:21:25 22° E
Cosmos 1821 Rocket 4.2 05:18:41 10° NNW 05:24:50 58° W 05:24:50 58° W
SL-16 R/B 4.0 05:24:43 20° ESE 05:28:00 32° ENE 05:33:25 10° N
Gbstr 26 Del rocket 3.8 05:23:43 10° NW 05:29:50 73° WNW 05:29:50 73° WNW
Cosmos 1934 Rocket 3.8 05:24:35 10° N 05:30:46 88° E 05:30:51 87° SE
RESURS DK-1 4.2 05:31:19 10° NNW 05:33:17 27° NNW 05:33:17 27° NNW
EO 1 Delta rocket 4.5 05:40:39 53° NW 05:40:39 53° NW 05:45:12 10° NNW
Cosmos 44 Rocket 4.3 05:38:55 10° NNW 05:43:56 45° NE 05:45:22 36° E
USA 281 3.3 05:43:35 46° SE 05:45:37 70° ENE 05:52:09 10° NNW
Lacrosse 5 3.1 05:47:46 31° E 05:47:46 31° E 05:51:05 10° ENE
Cosmos 1535 Rocket 4.4 05:43:17 10° N 05:49:31 74° W 05:49:45 73° WSW
Helios 1B rocket 4.1 05:46:07 10° NE 05:48:57 27° ENE 05:48:57 27° ENE
Cosmos 2369 Rocket 3.5 05:50:29 26° WNW 05:51:29 28° NW 05:56:18 10° N
BREEZE-M DEB (TANK) 3.8 05:53:46 64° ESE 05:53:46 64° ESE 06:03:38 10° ENE
ATLAS CENTAUR R/B 2.9 05:57:32 30° N 05:57:32 30° N 05:59:45 10° NNE
Helios 1A 4.2 05:58:02 37° NNW 05:58:02 37° NNW 06:00:39 10° NNW
Cosmos 1400 Rocket 4.0 05:55:25 10° N 05:58:38 43° NE 05:58:38 43° NE
Cosmos 1943 Rocket 4.5 05:57:50 11° WNW 06:00:25 15° NW 06:03:29 10° NNW
Cosmos 1867 4.5 06:01:29 37° WNW 06:02:13 39° NW 06:07:22 10° NNE
Cosmos 1470 4.1 06:02:07 10° N 06:05:12 37° NE 06:05:12 37° NE
Okean 1 Rocket 3.7 06:02:57 10° N 06:06:59 52° ENE 06:06:59 52° ENE
ISS -1.3 06:15:11 20° NNW 06:15:15 20° NNW 06:17:51 10° NE
SeaSat 1 4.4 06:12:41 10° N 06:16:05 19° NW 06:17:25 17° WNW
Cosmos 1674 Rocket 4.0 06:18:22 57° NNW 06:18:22 57° NNW 06:22:07 10° N
Cosmos 1842 4.3 06:23:23 39° NNW 06:23:23 39° NNW 06:26:03 10° N
NPP 3.8 06:19:32 10° NNE 06:24:55 66° ESE 06:25:45 57° SSE
Meteor 2-20 4.3 06:25:01 62° SSW 06:26:04 78° W 06:32:15 10° N
Cosmos 1153 Rocket 4.4 06:21:22 10° N 06:27:47 84° W 06:29:21 54° S
Cosmos 1605 Rocket 4.2 06:24:11 10° NNW 06:30:11 51° W 06:30:47 49° WSW
Cosmos 1459 Rocket 4.3 06:28:46 10° N 06:35:01 65° E 06:38:01 31° SSE
CZ-2D R/B 2.0 06:32:57 10° N 06:38:23 79° WNW 06:39:13 64° SW
Meteor 1-29 4.0 06:36:20 10° NNE 06:38:54 43° NE 06:38:54 43° NE
Cosmos 2227 Rocket 3.8 06:34:48 10° N 06:39:53 33° NE 06:44:56 10° ESE
Cosmos 2297 Rocket 3.2 06:38:12 10° NNW 06:43:38 45° ENE 06:49:02 10° SE
Cosmos 2173 Rocket 4.0 06:38:42 10° N 06:44:53 78° E 06:47:44 34° SSE
Cosmos 1674 3.8 06:46:45 36° ESE 06:47:11 37° E 06:50:45 10° NNE
IDEFIX/ARIANE 42P 4.1 06:43:04 10° NE 06:47:41 30° E 06:50:36 18° SE
Cosmos 1455 Rocket 3.8 06:46:13 10° N 06:50:25 47° ENE 06:52:04 31° SE
NOSS 2-1 (E) 4.3 06:45:28 10° NW 06:50:50 73° WSW 06:58:27 10° SSE
Meteor 2-10 4.2 06:46:45 10° NNW 06:51:59 52° W 06:52:21 51° WSW
Cosmos 1953 3.4 06:50:13 10° N 06:54:00 41° ENE 06:55:31 28° SE
KORONAS-FOTON 4.5 06:55:25 44° ESE 06:55:58 48° E 06:59:46 10° NNE
ADEOS II 2.1 06:52:20 10° NNE 06:57:37 73° ESE 06:59:20 43° S
Cosmos 2251 Rocket 3.9 06:54:05 10° NNW 06:59:18 62° ENE 07:03:53 13° SSE
Cosmos 1802 Rocket 3.9 06:55:06 10° N 07:01:18 83° E 07:04:50 27° S
Resurs 1-4 Rocket 2.5 06:56:24 10° N 07:01:26 47° WNW 07:02:30 41° WSW
In-Cosmos 22 4.1 07:00:05 44° S 07:02:00 89° E 07:07:36 10° N
Cosmos 1707 3.2 07:02:58 46° WNW 07:02:58 46° WNW 07:06:19 10° N
SL-19 R/B 4.3 06:58:02 10° N 07:03:42 67° WNW 07:05:19 45° SW
IRS-1D 3.8 06:58:55 10° NNE 07:04:15 70° ESE 07:06:26 36° S
Cosmos 2100 Rocket 4.0 06:59:26 10° NNW 07:05:41 69° W 07:08:20 36° SSW
ADEOS Rocket 3.7 07:01:02 10° SSE 07:08:14 74° ENE 07:15:58 10° N
SL-16 R/B 2.9 07:09:48 38° SW 07:11:22 45° W 07:17:22 10° NNW
Cosmos 1726 3.6 07:09:26 10° NNW 07:11:39 26° WNW 07:11:39 26° WNW
Cosmos 2123 Rocket 4.0 07:09:56 30° S 07:13:10 82° E 07:19:22 10° N
Meteor 2-11 Rocket 4.4 07:09:37 10° N 07:15:48 81° W 07:19:34 25° S
Cosmos 2219 3.4 07:14:18 10° NNW 07:20:01 76° ENE 07:25:44 10° SSE
Cosmos 1975 Rocket 3.1 07:19:39 49° SW 07:20:27 59° W 07:24:46 10° N
CZ-4C R/B 3.8 07:18:20 20° SSE 07:21:19 68° ENE 07:25:33 10° N
Cosmos 1908 3.3 07:18:07 10° N 07:22:01 74° E 07:23:38 33° SSE
Helios 1B rocket 3.9 07:21:33 10° NNW 07:24:51 23° WNW 07:25:15 23° WNW
Cosmos 304 Rocket 4.2 07:23:33 28° S 07:25:53 56° ESE 07:30:36 10° NNE
Cosmos 1626 2.5 07:25:08 36° SSE 07:26:24 59° E 07:30:03 10° NNE
Cosmos 1758 4.3 07:23:12 10° NNW 07:26:37 32° W 07:26:37 32° W
Cosmos 1656 3.6 07:25:27 36° SW 07:27:40 72° WNW 07:33:11 10° NNE
COSMOS 2455 2.7 07:22:43 10° NW 07:28:43 71° WSW 07:34:40 10° SSE
Lacrosse 5 2.6 07:26:57 26° W 07:29:21 44° NW 07:34:14 10° NE
USA 281 4.3 07:30:26 22° WSW 07:30:35 22° W 07:35:32 10° NW
CZ-3B R/B 4.3 07:16:40 14° WSW 07:33:58 56° NW 07:38:51 10° NE
Spot 1 4.2 07:31:03 17° SSE 07:34:30 90° SSE 07:39:20 10° NNW
Cosmos 1864 Rocket 4.5 07:28:32 10° N 07:34:54 75° W 07:40:02 16° S
Cosmos 1315 Rocket 3.4 07:31:52 10° NNW 07:35:33 37° W 07:35:47 37° WSW
Iridium 2 4.4 07:33:18 20° SSE 07:35:40 50° E 07:39:22 10° NNE
Centaur D-1AR AC-39 4.5 07:34:05 10° S 07:36:20 12° SSE 07:40:08 10° SE
CZ-2C R/B 2.6 07:39:55 17° SSE 07:39:55 17° SSE 07:41:11 10° SE
Cosmos 1140 Rocket 4.4 07:34:42 10° N 07:39:46 49° ENE 07:44:50 10° SE
Meteor 1-28 Rocket 3.2 07:39:04 42° SSW 07:39:57 55° W 07:43:36 10° NNW
ARIANE 5 R/B 3.1 07:35:56 10° NNE 07:41:01 55° E 07:45:20 14° S
Lacrosse 4 Rocket 2.5 07:40:00 20° S 07:42:42 42° ESE 07:46:55 10° NE
SL-14 R/B 3.6 07:41:20 22° S 07:43:39 64° E 07:47:34 10° NNE
Cosmos 2360 4.4 07:41:20 21° S 07:45:12 69° ESE 07:50:55 10° NNE
BREEZE-M DEB (TANK) 3.9 07:42:46 25° WSW 07:45:56 82° NNW 08:02:44 10° ENE
Cosmos 371 Rocket 3.8 07:47:14 28° WSW 07:49:23 46° WNW 07:54:06 10° N
Cosmos 614 Rocket 3.9 07:44:24 10° NNW 07:49:26 63° WSW 07:54:28 10° S
Meteor 1-16 Rocket 4.5 07:44:14 10° NNW 07:50:02 55° W 07:54:30 17° SSW
Cosmos 332 Rocket 3.8 07:49:32 27° SSW 07:52:12 70° WNW 07:57:05 10° NNE
ISS -1.0 07:50:33 10° NW 07:52:58 18° N 07:55:24 10° NE
Cosmos 1340 4.0 07:49:46 10° SSE 07:53:14 37° E 07:56:43 10° NNE
Tianhe-1 1.3 07:52:52 42° SW 07:53:18 46° SSW 07:56:20 10° ESE
TSX-5 3.5 07:50:46 10° NNW 07:54:12 84° WSW 07:58:20 10° SSE
Cosmos 1025 Rocket 3.7 08:02:13 24° SW 08:04:14 38° WNW 08:08:19 10° N
Cosmos 1725 Rocket 4.3 07:58:25 10° NNW 08:04:20 45° W 08:09:23 14° SSW
Cosmos 1697 Rocket 2.7 08:00:52 20° SW 08:04:45 71° WNW 08:10:23 10° NNE
CZ-2D R/B 3.8 08:04:05 10° NNE 08:08:29 74° ESE 08:12:54 10° S
USA 276 3.6 08:06:30 15° WNW 08:08:36 31° NNW 08:11:30 10° NE
Timation 2 Rocket 4.1 08:04:12 10° NW 08:09:53 47° WSW 08:15:36 10° S
CZ-2C R/B 3.5 08:06:44 10° NNE 08:11:39 47° E 08:16:37 10° S
Cosmos 407 Rocket 3.5 08:07:50 10° NNW 08:13:11 75° WSW 08:18:31 10° SSE
Cosmos 1624 Rocket 4.1 08:08:55 14° SSW 08:13:35 88° ESE 08:18:57 10° NNE
IRS-P3 4.3 08:08:56 10° N 08:14:12 59° WNW 08:18:41 14° SSW
ERS-1 4.5 08:09:23 10° N 08:14:27 75° WNW 08:19:16 12° SSW
Cosmos 1980 Rocket 2.4 08:09:43 12° SSW 08:15:02 74° ESE 08:20:43 10° NNE
Cosmos 1544 Rocket 4.4 08:13:24 10° NNW 08:17:14 30° W 08:20:00 16° SW
CZ-2D R/B 4.2 08:15:38 10° NW 08:17:30 12° NW 08:19:22 10° WNW
Cosmos 405 3.9 08:14:09 10° N 08:17:35 49° ENE 08:20:59 10° SSE
GP-B 3.9 08:14:00 10° NNW 08:18:00 33° W 08:20:51 16° SW
USA 129 2.0 08:16:52 10° SSE 08:19:03 55° ENE 08:20:39 10° N
Cosmos 2233 Rocket 4.2 08:13:42 10° NNW 08:19:42 53° W 08:25:38 10° SSW
CZ-4B R/B 3.6 08:15:24 10° N 08:20:16 60° WNW 08:24:52 12° SSW
Cosmos 2369 3.8 08:18:44 14° SW 08:23:35 68° WNW 08:29:19 10° NNE
Cosmos 2227 Rocket 2.7 08:18:47 10° NW 08:23:57 38° WSW 08:29:06 10° S
Cosmos 1606 Rocket 4.4 08:20:13 10° N 08:24:32 55° E 08:28:51 10° SSE
Cosmos 2285 Rocket 4.0 08:19:00 10° SSW 08:25:18 81° WNW 08:31:47 10° NNE
Cosmos 2278 3.8 08:21:17 10° SSW 08:26:59 81° ESE 08:32:43 10° NNE
IDEFIX/ARIANE 42P 3.4 08:22:30 10° N 08:27:15 35° WNW 08:31:24 13° SW
Cosmos 2297 Rocket 3.1 08:22:44 10° NW 08:27:25 27° WSW 08:32:04 10° SSW
Cosmos 1953 4.2 08:27:53 10° NW 08:29:59 14° W 08:31:09 13° WSW
Spot 4 Rocket 4.0 08:26:16 10° NNE 08:31:26 84° WNW 08:36:34 10° SSW
Cosmos 1536 Rocket 4.4 08:30:25 13° SW 08:33:46 33° WNW 08:37:48 10° N
Cosmos 2056 Rocket 3.6 08:29:22 11° SSW 08:34:10 61° WNW 08:39:16 10° NNE
Cosmos 2082 3.8 08:30:32 10° NNW 08:36:08 59° WSW 08:41:43 10° S
ADEOS II 3.9 08:33:35 10° NNW 08:36:40 16° WNW 08:39:45 10° W
Cosmos 1954 Rocket 4.1 08:33:39 10° NNW 08:38:57 86° ENE 08:44:15 10° SSE
PAYLOAD A 3.8 08:35:13 10° NNE 08:40:00 87° WNW 08:44:42 10° SSW
SL-16 R/B 3.7 08:38:31 10° SSE 08:43:35 35° ESE 08:48:40 10° NE
Cosmos 1300 3.4 08:40:40 10° NNW 08:44:07 33° W 08:47:33 10° SSW
Cosmos 1484 Rocket 4.4 08:42:12 10° NNE 08:45:53 35° E 08:49:29 10° SSE
Cosmos 292 Rocket 4.3 08:42:21 10° S 08:47:06 61° ESE 08:51:54 10° NNE
Cosmos 2228 3.0 08:44:16 10° NNW 08:48:30 66° W 08:52:44 10° S
FENGYUN 3A 4.0 08:46:26 10° NNE 08:51:48 69° ESE 08:57:09 10° S
CZ-2C R/B 2.9 08:48:30 10° N 08:52:28 68° WNW 08:56:28 10° SSW
Meteor 2-5 Rocket 4.3 08:47:56 10° SW 08:53:19 40° WNW 08:58:38 10° N
Meteor 1-24 Rocket 4.0 08:48:24 10° SSW 08:53:52 48° WNW 08:59:10 10° N
SL-08 R/B 4.3 08:54:32 10° SSW 08:58:32 27° W 09:02:32 10° NW
USA 32 4.2 08:53:51 10° N 08:59:09 85° E 09:04:24 10° S
CENTAUR R/B 4.3 08:57:01 10° SSE 09:01:45 28° ESE 09:07:08 10° NE
USA 234 4.0 08:55:58 10° ENE 09:02:17 49° SE 09:08:34 10° SSW
